Inverness, FL

2:52 AM EDT on October 17, 2017 (GMT -0400)
Inverness

Weather History for KINF - November, 2012

Change the Weather History Date:

Tuesday, November 20, 2012

  Actual Average (KBKV) Record (KBKV)
Temperature  
Mean Temperature 62 °F -  
Max Temperature 73 °F 74 °F 84 °F (1998)
Min Temperature 51 °F 50 °F 28 °F (2008)
Degree Days  
Heating Degree Days 3    
Growing Degree Days 12 (Base 50)    
Moisture  
Dew Point 54 °F    
Average Humidity 74    
Maximum Humidity 100    
Minimum Humidity 53    
Precipitation  
Precipitation 0.00 in - - ()
Sea Level Pressure  
Sea Level Pressure 30.07 in    
Wind  
Wind Speed 6 mph ()    
Max Wind Speed 13 mph    
Max Gust Speed 17 mph    
Visibility 9.9 miles    
Events      
Averages and records for this station are not official NWS values.
T = Trace of Precipitation, MM = Missing Value Source: Averaged Metar Reports

Daily Weather History Graph

Daily Weather History Graph

Search for Another Location

Airport or City:

Trip Planner

Search our weather history database for the weather conditions in past years. The results will help you decide how hot, cold, wet, or windy it might be!

Date:

Astronomy

Nov. 20, 2012 Rise Set
Actual Time 6:56 AM EST 5:33 PM EST
Civil Twilight 6:31 AM EST 5:58 PM EST
Nautical Twilight 6:02 AM EST 6:27 PM EST
Astronomical Twilight 5:34 AM EST 6:55 PM EST
Moon 12:46 PM EST (11/20) No Moon Set
Length of Visible Light 11h 27m
Length of Day
10h 36m
Waxing Crescent, 51% of the Moon is Illuminated
Nov 20
Waxing Crescent
Nov 28
Full
Dec 6
Last Quarter
Dec 13
New
Dec 20
First Quarter

Hourly Weather History & Observations

Time (EST) Temp. Dew Point Humidity Pressure Visibility Wind Dir Wind Speed Gust Speed Precip Events Conditions
12:15 AM 57.2 °F 53.6 °F 88% 30.11 in 10.0 mi North 5.8 mph - N/A   Overcast
12:35 AM 57.2 °F 53.6 °F 88% 30.11 in 10.0 mi North 5.8 mph - N/A   Overcast
12:55 AM 57.2 °F 53.6 °F 88% 30.10 in 10.0 mi North 6.9 mph - N/A   Overcast
1:15 AM 57.2 °F 53.6 °F 88% 30.10 in 10.0 mi North 5.8 mph - N/A   Overcast
1:35 AM 57.2 °F 53.6 °F 88% 30.10 in 10.0 mi North 6.9 mph - N/A   Overcast
1:55 AM 59.0 °F 53.6 °F 82% 30.09 in 10.0 mi North 6.9 mph - N/A   Overcast
2:15 AM 59.0 °F 53.6 °F 82% 30.09 in 10.0 mi North 6.9 mph - N/A   Overcast
2:35 AM 59.0 °F 53.6 °F 82% 30.08 in 10.0 mi North 5.8 mph - N/A   Overcast
2:55 AM 59.0 °F 53.6 °F 82% 30.08 in 10.0 mi North 8.1 mph - N/A   Overcast
3:15 AM 59.0 °F 53.6 °F 82% 30.09 in 10.0 mi North 5.8 mph - N/A   Overcast
3:35 AM 59.0 °F 53.6 °F 82% 30.08 in 10.0 mi North 6.9 mph - N/A   Overcast
7:15 AM 59.0 °F 51.8 °F 77% 30.11 in 10.0 mi North 6.9 mph - N/A   Scattered Clouds
7:35 AM 59.0 °F 51.8 °F 77% 30.11 in 10.0 mi North 6.9 mph - N/A   Clear
7:55 AM 59.0 °F 53.6 °F 82% 30.11 in 10.0 mi North 9.2 mph - N/A   Clear
8:15 AM 60.8 °F 53.6 °F 77% 30.12 in 10.0 mi North 9.2 mph - N/A   Clear
8:35 AM 60.8 °F 53.6 °F 77% 30.11 in 10.0 mi North 9.2 mph - N/A   Clear
8:55 AM 60.8 °F 53.6 °F 77% 30.11 in 10.0 mi North 9.2 mph - N/A   Clear
9:15 AM 62.6 °F 53.6 °F 72% 30.11 in 10.0 mi North 8.1 mph - N/A   Clear
9:35 AM 62.6 °F 53.6 °F 72% 30.12 in 10.0 mi North 8.1 mph - N/A   Clear
9:55 AM 64.4 °F 53.6 °F 68% 30.12 in 10.0 mi North 9.2 mph - N/A   Clear
10:15 AM 64.4 °F 53.6 °F 68% 30.13 in 10.0 mi North 9.2 mph - N/A   Clear
10:35 AM 66.2 °F 53.6 °F 64% 30.12 in 10.0 mi NNE 6.9 mph - N/A   Clear
10:55 AM 68.0 °F 53.6 °F 60% 30.11 in 10.0 mi North 6.9 mph - N/A   Clear
11:15 AM 68.0 °F 53.6 °F 60% 30.11 in 10.0 mi North 6.9 mph - N/A   Clear
11:35 AM 68.0 °F 53.6 °F 60% 30.10 in 10.0 mi NE 10.4 mph - N/A   Clear
11:55 AM 69.8 °F 53.6 °F 56% 30.09 in 10.0 mi North 10.4 mph - N/A   Clear
12:15 PM 69.8 °F 53.6 °F 56% 30.09 in 10.0 mi North 10.4 mph - N/A   Clear
12:35 PM 69.8 °F 53.6 °F 56% 30.07 in 10.0 mi North 12.7 mph - N/A   Clear
12:55 PM 71.6 °F 53.6 °F 53% 30.06 in 10.0 mi NNE 8.1 mph - N/A   Clear
1:15 PM 71.6 °F 53.6 °F 53% 30.05 in 10.0 mi NNE 11.5 mph - N/A   Clear
1:35 PM 71.6 °F 53.6 °F 53% 30.04 in - North 6.9 mph - N/A   Clear
1:55 PM 71.6 °F 53.6 °F 53% 30.03 in 10.0 mi NNE 9.2 mph 16.1 mph N/A   Clear
2:15 PM 71.6 °F 53.6 °F 53% 30.02 in 10.0 mi North 8.1 mph - N/A   Clear
2:35 PM 73.4 °F 55.4 °F 53% 30.03 in 10.0 mi North 8.1 mph 17.3 mph N/A   Clear
2:55 PM 71.6 °F 53.6 °F 53% 30.03 in 10.0 mi North 9.2 mph - N/A   Clear
3:15 PM 71.6 °F 53.6 °F 53% 30.03 in 10.0 mi North 9.2 mph - N/A   Clear
3:35 PM 71.6 °F 53.6 °F 53% 30.02 in 10.0 mi North 8.1 mph - N/A   Clear
3:55 PM 71.6 °F 53.6 °F 53% 30.02 in 10.0 mi North 9.2 mph - N/A   Clear
4:15 PM 71.6 °F 53.6 °F 53% 30.01 in 10.0 mi NNE 10.4 mph - N/A   Scattered Clouds
4:35 PM 69.8 °F 53.6 °F 56% 30.02 in 10.0 mi NNE 8.1 mph - N/A   Scattered Clouds
4:55 PM 69.8 °F 53.6 °F 56% 30.01 in 10.0 mi NNE 8.1 mph - N/A   Clear
5:15 PM 68.0 °F 53.6 °F 60% 30.01 in 10.0 mi NNE 4.6 mph - N/A   Clear
5:35 PM 64.4 °F 55.4 °F 73% 30.02 in 10.0 mi Calm Calm - N/A   Clear
5:55 PM 62.6 °F 55.4 °F 77% 30.02 in 10.0 mi Calm Calm - N/A   Clear
6:15 PM 60.8 °F 55.4 °F 82% 30.03 in 10.0 mi Calm Calm - N/A   Clear
6:35 PM 60.8 °F 55.4 °F 82% 30.03 in 10.0 mi Calm Calm - N/A   Clear
6:55 PM 59.0 °F 53.6 °F 82% 30.04 in 10.0 mi Calm Calm - N/A   Clear
7:15 PM 59.0 °F 53.6 °F 82% 30.05 in 10.0 mi Calm Calm - N/A   Scattered Clouds
7:35 PM 59.0 °F 55.4 °F 88% 30.06 in 10.0 mi Calm Calm - N/A   Overcast
7:55 PM 62.6 °F 55.4 °F 77% 30.06 in 10.0 mi Calm Calm - N/A   Overcast
8:15 PM 60.8 °F 55.4 °F 82% 30.06 in 10.0 mi Calm Calm - N/A   Scattered Clouds
8:35 PM 59.0 °F 53.6 °F 82% 30.07 in 10.0 mi Calm Calm - N/A   Clear
8:55 PM 59.0 °F 53.6 °F 82% 30.07 in 10.0 mi Calm Calm - N/A   Clear
9:15 PM 55.4 °F 53.6 °F 94% 30.08 in 10.0 mi Calm Calm - N/A   Clear
9:35 PM 55.4 °F 53.6 °F 94% 30.08 in 10.0 mi Calm Calm - N/A   Clear
9:55 PM 53.6 °F 53.6 °F 100% 30.08 in 10.0 mi Calm Calm - N/A   Clear
10:15 PM 53.6 °F 53.6 °F 100% 30.08 in 10.0 mi Calm Calm - N/A   Clear
10:35 PM 53.6 °F 53.6 °F 100% 30.08 in 10.0 mi Calm Calm - N/A   Clear
10:55 PM 53.6 °F 51.8 °F 94% 30.08 in 10.0 mi Calm Calm - N/A   Clear
11:15 PM 51.8 °F 51.8 °F 100% 30.07 in 7.0 mi Calm Calm - N/A   Clear
11:35 PM 51.8 °F 51.8 °F 100% 30.07 in 7.0 mi Calm Calm - N/A   Clear
11:55 PM 51.8 °F 51.8 °F 100% 30.07 in 10.0 mi Calm Calm - N/A   Clear